Saltillo, Mexico

10:02 PM CST on March 28, 2017 (GMT -0600)
Plan De Guadalupe International

Weather History for MMIO - September, 2013

Change the Weather History Date:

Wednesday, September 4, 2013

  Actual Average Record
Temperature  
Mean Temperature 62 °F -  
Max Temperature 75 °F 78 °F 87 °F (2000)
Min Temperature 50 °F 62 °F 50 °F (2013)
Degree Days  
Heating Degree Days 2    
Growing Degree Days 12 (Base 50)    
Moisture  
Dew Point 58 °F    
Average Humidity 64    
Maximum Humidity 97    
Minimum Humidity 47    
Precipitation  
Precipitation 0.01 in - - ()
Sea Level Pressure  
Sea Level Pressure 30.16 in    
Wind  
Wind Speed 7 mph ()    
Max Wind Speed 23 mph    
Max Gust Speed 34 mph    
Visibility 8.0 miles    
Events Rain    
Averages and records for this station are not official NWS values.
T = Trace of Precipitation, MM = Missing Value Source: Averaged Metar Reports

Daily Weather History Graph

Daily Weather History Graph

Search for Another Location

Airport or City:

Trip Planner

Search our weather history database for the weather conditions in past years. The results will help you decide how hot, cold, wet, or windy it might be!

Date:

Astronomy

Sep. 04, 2013 Rise Set
Actual Time 7:25 AM CDT 7:59 PM CDT
Civil Twilight 7:02 AM CDT 8:22 PM CDT
Nautical Twilight 6:35 AM CDT 8:49 PM CDT
Astronomical Twilight 6:08 AM CDT 9:17 PM CDT
Moon 6:39 AM CDT (9/4) 7:24 PM CDT (9/4)
Length of Visible Light 13h 19m
Length of Day
12h 33m
Waning Crescent, 1% of the Moon is Illuminated
Sep 4
Waning Crescent
Sep 5
New
Sep 12
First Quarter
Sep 19
Full
Sep 26
Last Quarter

Hourly Weather History & Observations

Time (CDT) Temp. Heat Index Dew Point Humidity Pressure Visibility Wind Dir Wind Speed Gust Speed Precip Events Conditions
12:40 AM 68.0 °F - 57.2 °F 68% 30.22 in 8.0 mi North 6.9 mph - N/A   Clear
12:50 AM 54 °F - 53 °F 97% 29.94 in 3 mi SE 4.5 mph - -   Haze
1:40 AM 64.4 °F - 57.2 °F 77% 30.22 in 8.0 mi Calm Calm - N/A   Clear
3:50 AM 56 °F - 52 °F 83% 29.97 in 3 mi SE 6.7 mph - -   Haze
6:00 AM 64.4 °F - 55.4 °F 73% 30.23 in 10.0 mi Calm Calm - N/A   Clear
6:40 AM 62.6 °F - 51.8 °F 68% 30.24 in 10.0 mi Calm Calm - N/A   Clear
6:50 AM 52 °F - 50 °F 89% 30.02 in 3 mi Calm Calm - -   Haze
7:40 AM 64.4 °F - 51.8 °F 64% 30.24 in 10.0 mi Calm Calm - N/A   Clear
8:40 AM 71.6 °F - 51.8 °F 50% 30.27 in 10.0 mi Calm Calm - N/A   Clear
9:40 AM 75.2 °F - 53.6 °F 47% 30.28 in 8.0 mi Calm Calm - N/A   Clear
9:48 AM 62 °F - 55 °F 70% 30.08 in 11 mi North 6.7 mph - -   Haze
10:40 AM 80.6 °F 81.5 °F 60.8 °F 51% 30.27 in 8.0 mi Calm Calm - N/A   Clear
11:40 AM 82.4 °F 83.9 °F 64.4 °F 54% 30.27 in - North 6.9 mph - N/A   Clear
12:40 PM 78.8 °F - 64.4 °F 61% 30.25 in - North 16.1 mph - N/A   Scattered Clouds
12:48 PM 71 °F - 57 °F 52% 30.05 in 11 mi North 8.9 mph - -   Haze
1:40 PM 78.8 °F - 64.4 °F 61% 30.24 in - NNE 16.1 mph - N/A   Scattered Clouds
2:40 PM 82.4 °F 83.9 °F 64.4 °F 54% 30.21 in - NE 23.0 mph - N/A   Scattered Clouds
3:40 PM 82.4 °F 83.9 °F 64.4 °F 54% 30.18 in - NNE 23.0 mph - N/A   Scattered Clouds
3:48 PM 72 °F - 57 °F 50% 29.94 in 11 mi NNW 8.9 mph - - Rain Light Drizzle
4:40 PM 78.8 °F - 62.6 °F 57% 30.16 in - NE 23.0 mph - N/A   Mostly Cloudy
5:40 PM 77.0 °F - 62.6 °F 61% 30.16 in - NE 23.0 mph 34.5 mph N/A   Mostly Cloudy
6:40 PM 75.2 °F - 60.8 °F 61% 30.18 in - NE 23.0 mph - N/A   Scattered Clouds
6:48 PM 67 °F - 58 °F 64% 29.88 in 11 mi North 6.7 mph - - Rain Light Drizzle
7:40 PM 73.4 °F - 59.0 °F 61% 30.20 in - NE 17.3 mph - N/A   Mostly Cloudy
8:40 PM 73.4 °F - 59.0 °F 61% 30.22 in - NE 17.3 mph - N/A   Scattered Clouds
9:40 PM 71.6 °F - 59.0 °F 64% 30.25 in - NE 13.8 mph - N/A   Scattered Clouds
9:50 PM 60 °F - 54 °F 76% 29.89 in 3 mi SE 2.2 mph - -   Haze
10:40 PM 69.8 °F - 59.0 °F 68% 30.25 in - NE 11.5 mph - N/A   Clear
11:40 PM 69.8 °F - 59.0 °F 68% 30.26 in - NNE 11.5 mph - N/A   Clear